Regional Weather Roundup
Issued by NWS Wakefield, VA

Home | Current Version | Previous Version | Graphics & Text | Print | Product List | Glossary On
Versions: 1 2 3 4 5 6 7 8 9 10 11 12 13 14 15 16 17 18 19 20 21 22 23 24 25 26 27
000
ASUS41 KAKQ 280815
RWRAKQ

REGIONAL WEATHER ROUNDUP
NATIONAL WEATHER SERVICE WAKEFIELD VA
400 AM EDT SUN AUG 28 2016

Note: "fair" indicates few or no clouds below 12,000 feet with no
significant weather and/or obstructions to visibility. * = Denotes
station may not report precipitation (e.g., rain,snow,etc.),
thunder or fog.

VAZ042-051-052>054-056-280900-
NORTHERN VIRGINIA

CITY           SKY/WX    TMP DP  RH WIND       PRES   REMARKS
WASH NATIONAL  PTCLDY    76  72  87 CALM      30.20R
DULLES         PTCLDY    67  64  90 NW3       30.21R
FORT BELVOIR   CLEAR     68  67  95 CALM      30.19R
QUANTICO       NOT AVBL
FREDERICKSBRG* CLEAR     68  68 100 CALM      30.18S
STAFFORD*      CLEAR     65  64  97 CALM      30.23S FOG
WARRENTON      FOG       63  59  86 CALM      30.20R VSB 3/4
CULPEPER*      FOG       67  67 100 CALM      30.21S VSB 1/2
MANASSAS*      CLEAR     66  66 100 CALM      30.20R
LEESBURG*      CLEAR     68  68 100 NW6       30.23R
WINCHESTER     CLEAR     66  64  94 CALM      30.21S
FRONT ROYAL*   FAIR      66  66 100 CALM      30.20R
LURAY*         FAIR     N/A N/A N/A CALM      30.22R FOG
$$

VAZ048-049-060>072-079>083-280900-
CENTRAL AND SOUTH CENTRAL VIRGINIA

CITY           SKY/WX    TMP DP  RH WIND       PRES   REMARKS
RICHMOND       PTCLDY    69  66  90 N3        30.17S
CHESTERFIELD*  FAIR      66  52  59 CALM      30.19S
PETERSBURG*    MOCLDY   N/A N/A N/A CALM      30.17F
HANOVER        PTCLDY    65  63  93 CALM      30.20S
TAPPAHANNOCK*  CLEAR     68  68 100 CALM      30.18S
QUINTON*       FAIR      66  65  99 CALM      30.17S
CHARLOTTSVILLE CLEAR     69  67  93 CALM      30.21R
GORDONSVILLE*  FAIR      66  66 100 CALM      30.20R
ORANGE*          N/A     66  66 100 CALM      30.22S
LOUISA*        FOG       66  66 100 CALM      30.20R VSB 1/4
BUMPASS*       FAIR      67  67 100 CALM      30.20R
FARMVILLE*     CLEAR    N/A N/A N/A CALM      30.19R
CREWE*         FAIR      64  64 100 CALM      30.19S
FORT PICKETT*  NOT AVBL
CHASE CITY*    FAIR      68  67  94 CALM      30.19S
CLARKSVILLE*   FAIR      72  68  88 CALM      30.18F
SOUTH HILL*    CLEAR     66  65  97 CALM      30.24R
LAWRENCEVILLE* FAIR      68  67  99 CALM      30.18R
EMPORIA*       MOCLDY    64  64 100 CALM      30.18R
$$

VAZ088>098-280900-
SOUTHEAST VIRGINIA

CITY           SKY/WX    TMP DP  RH WIND       PRES   REMARKS
NORFOLK        CLEAR     77  74  90 NE10      30.13F
VIRGINIA BEACH MOCLDY    83  73  72 E8G17     30.12F
NORFOLK NAVAL  MOCLDY    78  73  84 E9        30.14F
WEST POINT*    CLEAR     65  65  97 CALM      30.18S
SALUDA*        PTSUNNY   77  74  91 E6        30.16S
NEWPORT NEWS   PTCLDY    77  73  87 E9        30.14F
LANGLEY AFB    PTCLDY    77  73  88 E13       30.13F
FORT EUSTIS    CLEAR     74  71  89 VRB1      30.12S
WILLIAMSBURG*  CLEAR     73  72  94 CALM      30.16S
HR EXEC AP*    PTSUNNY   75  72  88 E3        30.16F
FRANKLIN*      CLEAR     67  66  97 CALM      30.15S
US460-WAKEFLD  CLEAR     68  66  93 CALM      30.15F
$$

VAZ020-022-025-037-045-280900-
WEST CENTRAL AND SOUTHWEST VIRGINIA

CITY           SKY/WX    TMP DP  RH WIND       PRES   REMARKS
STAUNTON*      CLOUDY    65  64  97 CALM      30.25S
WAYNESBORO*    FAIR      67  63  87 CALM      30.25R
HOT SPRINGS VA CLOUDY    68  68 100 SE5       30.34S
LYNCHBURG      CLEAR     69  67  93 CALM      30.23S
DANVILLE       CLEAR     70  68  93 CALM      30.18F
SOUTH BOSTON*  FAIR      67  66  95 CALM      30.18F
MARTINSVILLE   CLOUDY    71  69  95 CALM      30.23S
ROANOKE        PTCLDY    76  66  71 SE3       30.24F
BLACKSBURG     CLEAR     69  65  86 CALM      30.29F
DUBLIN*        FOG       69  69  99 CALM      30.28S VSB 1/2
MARION*        PTCLDY    70  68  93 E5        30.30S
HILLSVILLE*    CLEAR     68  67  98 NE5       30.28S
RICHLANDS*     FAIR      74  69  85 SE6       30.25S
WISE*          CLOUDY    73  61  64 CALM      30.25F
ABINGDON*      CLOUDY    76  70  83 E6        30.22F
$$

MDZ021>025-VAZ099-100-280900-
SOUTHERN MARYLAND AND THE DELMARVA PENINSULA

CITY           SKY/WX    TMP DP  RH WIND       PRES   REMARKS
PATUXENT RIVER PTCLDY    75  72  90 E8        30.17S
BAY BRIDGE APT CLEAR     73  70  88 E3        30.19S
LEONARDTOWN    MOCLDY    73  70  88 CALM      30.19S
DOVER          CLEAR     74  74 100 E6        30.17F
GEORGETOWN     NOT AVBL
EASTON         CLEAR     72  72 100 CALM      30.22S
CAMBRIDGE      CLEAR     68  68 100 CALM      30.18S
SALISBURY      PTCLDY    69  68  96 CALM      30.17F
OCEAN CITY     CLEAR     76  71  85 E7        30.17F
WALLOPS ISLAND CLEAR     77  65  66 E8        30.16F
ACCOMACK*      CLEAR     74  71  88 E6        30.15S
$$

NCZ012>017-030>032-280900-
NORTH CENTRAL AND EASTERN NORTH CAROLINA

CITY           SKY/WX    TMP DP  RH WIND       PRES   REMARKS
ROANOKE RAPIDS FAIR      64  64 100 CALM      30.16S
RALEIGH        PTCLDY    73  70  90 NE5       30.16F
ELIZABETH CITY PTCLDY    78  75  90 NE10      30.12F
AHOSKIE*       CLOUDY    70  69  97 CALM      30.15S
EDENTON*       CLEAR    N/A N/A N/A CALM      30.13F
CURRITUCK*       N/A     80  77  91 NE9G16    30.13F
KILL DEVIL HLS MOCLDY    79  79 100 NE5       30.09F
MANTEO         MOCLDY    78  78  99 NE6       30.11S
CAPE HATTERAS  MOCLDY    79  72  79 E6        30.09F
TARBORO*       FAIR      70  69  97 CALM      30.15F FOG
GOLDSBORO      PTCLDY    75  75 100 NE3       30.12F
WASHINGTON     PTCLDY    73  72  98 N3        30.13S FOG
GREENVILLE     CLOUDY    73  73 100 NE3       30.15S
NEW BERN       PTCLDY    77  74  90 NE6       30.12F
WILMINGTON     MOCLDY    76  74  93 N6        30.09F
$$

VAZ048-280900-
ELSEWHERE

CITY           SKY/WX    TMP DP  RH WIND       PRES   REMARKS
HARRISBURG PA  CLEAR     71  69  93 E7        30.20S
BALTIMORE      PTCLDY    73  69  87 E6        30.19S
ANNAPOLIS      CLEAR     78  73  84 SE10      30.18F
ANDREWS AFB    CLEAR     70  68  95 E3        30.19S
PHILADELPHIA   PTCLDY    71  68  90 CALM      30.21S
HENDERSON NC   CLEAR     65  64  96 CALM      30.18F
GREENSBORO     PTCLDY    73  72  96 E8        30.16F
ROCKY MOUNT    CLEAR     71  71 100 NE3       30.15F
$$

VAZ100-280900-
MARINE

STATION/POSITION TIME  TEMP    WIND        PRES    WAVE   SWELL
                       AIR SEA DIR/SP/G            HT/PER HT/PER
                 (UTC) (F)     (DEG/KT/KT) (MB)    (FT/S) (FT/S)
BRANDYWINE LGT   0742   75     110/  9/ 11   N/A
CAPE MAY NJ      0700   74 73   80/  2/  5 1021.8R
LEWES DE         0700   74 75  120/  5/  6 1022.0S
OCEAN-CITY-INLET 0700   76 76  110/  6/  8 1022.3S
WACHAPREAGUE VA  0700   78 83   60/  8/ 12 1021.3F
THOMAS POINT MD  0800   75 83  120/  8/  9 1023.6S
GOOSES REEF MD   0800   76 83  120/ 12/ 14 1022.4S   1/ 2
COVE POINT MD    0700   75     140/ 15/ 18 1022.4S
SOLOMONS ISLAND  0700   77 84  100/ 13/ 15   N/A
PINEY POINT MD   0700          110/ 10/ 12   N/A
POTOMAC MD       0800   78 83  100/ 12/ 16 1020.5R   1/ 3
CAMBRIDGE MD     0700   74 84   90/  7/  9 1021.1F
LEWISETTA VA     0700   79 84  120/ 14/ 16 1021.0F
RAPPAHANNOCK LGT 0700           60/ 12/ 13 1021.6F
STINGRAY PT      0800   79 83   30/ 14/ 16 1021.4S   2/ 3
YORK RVR RNG VA  0700   79      80/ 11/ 14 1020.5F
YORKTOWN VA      0700   79 83   80/ 15/ 17 1020.6F
JAMESTOWN VA     0800   76 85   30/  2/  4   N/A     0
DOMINION TERM VA 0700   79      70/ 12/ 16 1020.8F
KIPTOPEKE VA     0700      80   70/  8/ 12   N/A
CHES BAY BRIDGE  0700   78 81   40/ 13/ 15 1020.5F
CAPE HENRY VA    0700   78      50/ 13/ 17   N/A
WILLOUBY STN VA  0700   79      60/ 14/ 16   N/A
CAPE HENRY BUOY  0712      80                N/A     4/ 5
1ST LANDING BUOY 0800   78 77   90/ 10/ 12 1020.0F   2/ 3
CAPE CHARLES BUO 0726      79                N/A     4/ 5
OFFSHORE WE BUOY 0721      80                N/A     4/ 5
64NM E OF VA BCH 0750   81 81   70/ 17/ 19 1018.9F   4/ 5   2/ 9
DUCK PIER NC     0700   80 79   50/ 15/ 17 1019.4F
44100 DUCK FRF   0705      80                N/A     4/ 4
44056 DUCK FRF   0711      79                N/A     4/ 5
OREGON INLET NC  0700   80 79   30/  7/ 11 1019.4F
HATTERAS NC      0700   80 84   80/  5/  8 1018.9F
DIAMOND SHLS NC  0750   80 84   70/  4/  6 1018.8F   3/ 8   3/ 8
CAPE LOOKOUT NC  0800   80      70/  4/  4 1018.6F
$$




USA.gov is the U.S. government's official web portal to all federal, state and local government web resources and services.